Date,TemperatureHighF,TemperatureAvgF,TemperatureLowF,DewpointHighF,DewpointAvgF,DewpointLowF,HumidityHigh,HumidityAvg,HumidityLow,PressureMaxIn,PressureMinIn,WindSpeedMaxMPH,WindSpeedAvgMPH,GustSpeedMaxMPH,PrecipitationSumIn
2013-1-1,76.0,60.3,48.0,-10.0,-20.8,-29.0,3,3,3,0.00,40.00,13,9,26,0.00
2013-1-2,73.0,60.7,54.0,-12.0,-20.4,-25.0,3,3,3,0.00,40.00,18,11,31,0.00
2013-1-3,72.0,59.9,48.0,-13.0,-21.0,-29.0,3,3,3,0.00,40.00,23,11,39,0.00
2013-1-4,75.0,63.8,57.0,-11.0,-18.4,-23.0,3,3,3,0.00,40.00,35,23,56,0.00
2013-1-5,71.0,61.2,56.0,-14.0,-20.2,-24.0,3,3,3,0.00,40.00,38,25,65,0.00
2013-1-6,73.0,62.1,56.0,-12.0,-19.6,-24.0,3,3,3,0.00,40.00,42,24,66,0.00
2013-1-7,67.0,59.2,51.0,-16.0,-21.5,-27.0,3,3,3,0.00,40.00,21,9,47,0.00
2013-1-8,70.0,61.4,51.0,-14.0,-20.1,-27.0,3,3,3,0.00,40.00,27,12,40,0.00
2013-1-9,70.0,60.2,53.0,-14.0,-20.9,-26.0,3,3,3,0.00,40.00,23,9,38,0.00
2013-1-10,69.0,58.1,50.0,-15.0,-22.4,-28.0,3,3,3,0.00,40.00,14,8,28,0.57
2013-1-11,69.0,57.3,48.0,-15.0,-23.0,-29.0,3,3,3,0.00,40.00,15,9,26,0.02
2013-1-12,70.0,56.8,46.0,-14.0,-23.3,-31.0,3,3,3,0.00,40.00,14,9,20,0.01
2013-1-13,70.0,59.3,49.0,-14.0,-21.5,-29.0,3,3,3,0.00,40.00,11,7,19,0.01
2013-1-14,71.0,59.5,50.0,-14.0,-21.5,-28.0,3,3,3,0.00,40.00,14,9,23,0.00
2013-1-15,72.0,60.7,55.0,-13.0,-20.5,-24.0,3,3,3,0.00,40.00,11,5,22,0.02
2013-1-16,68.0,58.1,50.0,-16.0,-22.3,-28.0,3,3,3,0.00,40.00,13,7,18,0.03
2013-1-17,67.0,55.3,46.0,-16.0,-24.2,-31.0,3,3,3,0.00,40.00,14,8,20,0.00
2013-1-18,67.0,53.8,41.0,-16.0,-25.3,-34.0,3,3,3,0.00,40.00,12,7,19,0.00
2013-1-19,68.0,53.4,37.0,-16.0,-25.7,-37.0,3,3,3,0.00,40.00,14,10,25,0.00
2013-1-20,68.0,55.0,40.0,-16.0,-24.5,-35.0,3,3,3,0.00,40.00,19,11,29,0.00
2013-1-21,73.0,59.4,48.0,-12.0,-21.5,-29.0,3,3,3,0.00,40.00,24,10,35,0.00
2013-1-22,72.0,60.1,48.0,-13.0,-21.1,-29.0,3,3,3,0.00,40.00,22,9,41,0.00
2013-1-23,68.0,57.0,45.0,-16.0,-23.0,-31.0,3,3,3,0.00,40.00,12,7,22,0.00
2013-1-24,65.0,54.8,46.0,-18.0,-24.6,-31.0,3,3,3,0.00,40.00,11,7,21,0.00
2013-1-25,68.0,56.6,46.0,-16.0,-23.5,-31.0,3,3,3,0.00,40.00,14,9,20,0.00
2013-1-26,66.0,55.3,46.0,-17.0,-24.2,-31.0,3,3,3,0.00,40.00,14,8,20,0.00
2013-1-27,69.0,55.4,41.0,-15.0,-24.3,-34.0,3,3,3,0.00,40.00,14,8,21,0.00
2013-1-28,65.0,56.0,46.0,-18.0,-23.8,-31.0,3,3,3,0.00,40.00,13,8,19,0.00
2013-1-29,65.0,56.9,47.0,-18.0,-23.2,-30.0,3,3,3,0.00,40.00,10,6,17,0.07
2013-1-30,64.0,58.6,55.0,-18.0,-22.0,-24.0,3,3,3,0.00,40.00,9,4,15,0.23
2013-1-31,67.0,58.5,48.0,-16.0,-22.0,-29.0,3,3,3,0.00,40.00,12,8,19,0.19
2013-2-1,70.0,57.4,52.0,-14.0,-22.8,-27.0,3,3,3,0.00,40.00,14,8,23,0.19
2013-2-2,58.0,56.0,53.0,38.0,30.3,25.0,48,38,33,0.00,40.00,23,14,44,0.00
2013-2-5,55.0,50.5,47.0,46.0,21.2,-99.9,89,71,83,0.00,40.00,11,9,19,0.00
2013-2-6,57.0,52.5,48.0,53.0,47.5,44.0,91,83,71,0.00,40.00,11,9,18,0.00
2013-2-7,59.0,54.5,51.0,51.0,35.8,-99.9,96,76,72,0.00,40.00,17,9,31,0.00
2013-2-8,53.0,50.5,49.0,47.0,44.2,40.0,94,79,66,0.00,40.00,16,12,24,0.00
2013-2-9,55.0,48.3,46.0,45.0,42.3,37.0,93,81,50,0.00,40.00,14,11,19,0.00
2013-2-10,57.0,53.7,51.0,48.0,46.0,44.0,84,76,71,0.00,40.00,18,13,28,0.00
2013-2-11,67.0,55.3,48.0,55.0,47.7,37.0,98,77,61,0.00,40.00,14,8,29,0.00
2013-2-12,69.0,54.8,45.0,54.0,45.8,38.0,93,74,41,0.00,40.00,21,10,31,0.00
2013-2-13,65.0,53.0,41.0,50.0,41.3,27.0,89,66,37,0.00,40.00,14,9,25,0.00
2013-2-14,68.0,53.8,44.0,52.0,44.5,32.0,94,73,50,0.00,40.00,14,9,28,0.00
2013-2-15,75.0,56.7,42.0,56.0,45.5,33.0,95,69,37,0.00,40.00,21,10,39,0.00
2013-2-16,73.0,60.2,50.0,53.0,46.4,40.0,89,63,33,0.00,40.00,27,12,47,0.00
2013-2-17,66.0,58.4,53.0,56.0,47.1,37.0,95,67,47,0.00,40.00,30,17,52,0.00
2013-2-18,71.0,59.1,51.0,54.0,46.8,39.0,90,65,35,0.00,40.00,31,18,59,0.00
2013-2-19,70.0,60.0,53.0,50.0,44.9,40.0,71,59,37,0.00,40.00,24,15,40,0.00
2013-2-20,73.0,59.3,53.0,56.0,47.6,43.0,87,66,40,0.00,40.00,21,13,43,0.00
2013-2-21,69.0,59.8,50.0,58.0,49.0,40.0,92,69,41,0.00,40.00,21,12,36,0.00
2013-2-22,64.0,58.6,54.0,59.0,49.7,46.0,89,73,58,0.00,40.00,28,16,45,0.00
2013-2-23,67.0,57.2,52.0,56.0,49.2,45.0,92,76,51,0.00,40.00,22,12,37,0.00
2013-2-24,66.0,57.6,47.0,56.0,49.5,43.0,89,75,62,0.00,40.00,17,9,34,0.00
2013-2-25,72.0,58.1,48.0,56.0,48.6,43.0,96,73,38,0.00,40.00,20,12,34,0.00
2013-2-26,72.0,58.4,50.0,53.0,46.4,39.0,95,67,31,0.00,40.00,25,14,49,0.00
2013-2-27,70.0,57.6,46.0,55.0,48.9,43.0,100,74,52,0.00,40.00,18,8,39,0.00
2013-2-28,65.0,54.2,41.0,52.0,44.4,25.0,96,71,38,0.00,40.00,17,8,33,0.00
2013-3-1,71.0,57.7,47.0,52.0,44.5,38.0,95,63,44,0.00,40.00,28,13,40,0.00
2013-3-2,72.0,56.9,46.0,53.0,46.5,33.0,94,71,46,0.00,40.00,15,8,27,0.00
2013-3-3,66.0,56.0,44.0,53.0,48.2,37.0,95,76,58,0.00,40.00,15,8,25,0.00
2013-3-4,68.0,55.5,44.0,52.0,36.9,3.0,93,54,14,0.00,40.00,14,9,23,0.00
2013-3-5,68.0,54.6,40.0,54.0,44.1,29.0,92,69,48,0.00,40.00,13,9,27,0.00
2013-3-6,67.0,54.2,44.0,55.0,48.6,40.0,97,83,53,0.00,40.00,13,8,25,0.00
2013-3-7,65.0,54.0,42.0,57.0,48.9,37.0,100,84,54,0.00,40.00,13,8,30,0.00
2013-3-8,66.0,54.2,42.0,55.0,49.4,39.0,100,85,57,0.00,40.00,14,7,22,0.00
2013-3-9,72.0,58.8,48.0,55.0,46.9,42.0,85,67,37,0.00,40.00,16,11,34,0.00
2013-3-10,73.0,62.0,53.0,54.0,47.2,42.0,84,60,40,0.00,40.00,21,11,30,0.00
2013-3-11,69.0,57.9,48.0,59.0,49.2,37.0,100,75,40,0.00,40.00,14,9,23,0.00
2013-3-12,65.0,58.1,53.0,59.0,55.0,49.0,99,90,73,0.00,40.00,12,6,22,0.00
2013-3-13,69.0,56.7,46.0,57.0,50.8,42.0,98,82,50,0.00,40.00,13,8,27,0.00
2013-3-14,68.0,57.0,47.0,57.0,52.4,45.0,98,86,57,0.00,40.00,13,8,23,0.00
2013-3-15,64.0,58.0,55.0,60.0,54.3,47.0,100,89,63,0.00,40.00,10,6,20,0.00
2013-3-16,61.0,55.2,51.0,58.0,52.7,45.0,100,91,73,0.00,40.00,13,6,32,0.00
2013-3-17,63.0,54.9,50.0,56.0,52.0,48.0,99,90,77,0.00,40.00,11,5,25,0.00
2013-3-18,66.0,56.8,45.0,50.0,47.1,42.0,97,72,50,0.00,40.00,12,7,22,0.00
2013-3-19,67.0,56.0,45.0,56.0,47.9,41.0,95,76,53,0.00,40.00,13,8,23,0.00
2013-3-20,66.0,56.4,47.0,58.0,51.0,42.0,99,84,55,0.00,40.00,13,8,21,0.00
2013-3-21,67.0,58.0,50.0,57.0,51.9,46.0,96,81,58,0.00,40.00,12,8,24,0.00
2013-3-22,68.0,57.4,47.0,58.0,51.7,41.0,98,82,53,0.00,40.00,12,7,19,0.00
2013-3-23,66.0,58.0,52.0,60.0,54.8,49.0,99,90,58,0.00,40.00,9,5,18,0.00
2013-3-24,65.0,58.3,52.0,59.0,55.5,49.0,98,90,79,0.00,40.00,11,6,20,0.00
2013-3-25,70.0,59.2,50.0,60.0,54.1,46.0,99,84,57,0.00,40.00,13,8,20,0.00
2013-3-26,68.0,58.6,50.0,60.0,54.0,47.0,95,86,68,0.00,40.00,11,9,22,0.00
2013-3-27,70.0,59.4,51.0,57.0,51.8,48.0,95,78,53,0.00,40.00,14,8,25,0.00
2013-3-28,72.0,63.6,54.0,55.0,50.2,43.0,90,64,45,0.00,40.00,16,9,29,0.00
2013-3-29,68.0,57.9,49.0,60.0,51.6,42.0,100,82,52,0.00,40.00,13,9,24,0.00
2013-3-30,63.0,56.1,49.0,58.0,53.7,48.0,97,92,66,0.00,40.00,10,6,16,0.00
2013-3-31,65.0,56.6,47.0,56.0,51.8,42.0,97,85,66,0.00,40.00,13,7,23,0.00
2013-4-1,64.0,52.4,40.0,51.0,43.7,22.0,94,74,45,0.00,40.00,16,7,30,0.00
2013-4-2,64.0,52.3,41.0,53.0,46.7,39.0,96,82,55,0.00,40.00,14,8,23,0.00
2013-4-3,67.0,54.1,43.0,52.0,47.5,41.0,94,80,54,0.00,40.00,13,8,33,0.00
2013-4-4,69.0,56.5,46.0,52.0,47.5,44.0,93,74,52,0.00,40.00,13,8,26,0.00
2013-4-5,68.0,58.8,48.0,59.0,52.0,44.0,97,80,52,0.00,40.00,13,9,23,0.00
2013-4-6,73.0,62.1,52.0,60.0,52.8,41.0,95,73,56,0.00,40.00,13,7,22,0.00
2013-4-7,72.0,62.8,54.0,61.0,49.3,36.0,98,65,30,0.00,40.00,14,8,24,0.00
2013-4-8,69.0,58.1,48.0,59.0,50.9,41.0,98,79,51,0.00,40.00,15,9,25,0.00
2013-4-9,68.0,59.5,52.0,59.0,54.0,46.0,99,83,47,0.00,40.00,19,8,33,0.00
2013-4-10,72.0,63.4,54.0,59.0,53.0,45.0,98,70,51,0.00,40.00,18,9,28,0.00
2013-4-11,71.0,61.3,49.0,61.0,56.1,48.0,98,85,57,0.00,40.00,11,6,22,0.00
2013-4-12,70.0,59.8,48.0,59.0,54.3,43.0,97,83,58,0.00,40.00,13,7,19,0.00
2013-4-13,76.0,62.0,50.0,59.0,51.8,34.0,98,74,22,0.00,40.00,14,8,25,0.00
2013-4-14,72.0,61.1,51.0,60.0,53.4,41.0,96,77,50,0.00,40.00,13,7,21,0.00
2013-4-15,70.0,60.2,48.0,59.0,53.7,40.0,94,80,57,0.00,40.00,12,7,22,0.00
2013-4-16,71.0,61.6,52.0,61.0,55.0,40.0,96,81,47,0.00,40.00,13,8,47,0.00
2013-4-17,70.0,61.3,52.0,61.0,49.1,32.0,90,66,33,0.00,40.00,18,10,30,0.00
2013-4-18,70.0,61.4,52.0,60.0,53.7,43.0,95,77,56,0.00,40.00,17,9,27,0.00
2013-4-19,57.0,55.0,53.0,50.0,49.0,47.0,87,80,76,0.00,40.00,12,10,20,0.00
2013-5-6,66.0,61.6,59.0,61.0,59.1,54.0,100,91,75,0.00,40.00,10,5,16,0.00
2013-5-7,70.0,60.5,49.0,62.0,57.2,48.0,100,90,63,0.00,40.00,10,7,18,0.00
2013-5-8,71.0,61.2,50.0,62.0,56.7,47.0,100,86,58,0.00,40.00,13,8,22,0.00
2013-5-9,71.0,62.1,54.0,64.0,59.1,53.0,100,91,70,0.00,40.00,13,8,22,0.00
2013-5-10,72.0,64.9,57.0,64.0,61.4,57.0,100,90,67,0.00,40.00,11,6,19,0.00
2013-5-11,73.0,64.0,55.0,64.0,60.0,51.0,100,88,65,0.00,40.00,12,7,23,0.00
2013-5-12,74.0,63.2,55.0,64.0,59.2,53.0,100,88,70,0.00,40.00,18,8,35,0.00
2013-5-13,71.0,63.7,57.0,63.0,57.6,45.0,100,81,66,0.00,40.00,14,10,28,0.00
2013-5-14,73.0,64.9,57.0,60.0,52.7,45.0,88,65,46,0.00,40.00,19,12,32,0.00
2013-5-15,71.0,62.3,53.0,61.0,54.1,43.0,97,75,55,0.00,40.00,15,9,28,0.00
2013-5-16,73.0,57.5,54.0,60.0,31.7,-99.9,97,70,39,0.00,40.00,21,12,37,0.00
2013-5-17,73.0,61.5,53.0,59.0,46.9,-99.9,94,74,46,0.00,40.00,17,10,30,0.00
2013-5-18,71.0,60.1,51.0,63.0,55.8,48.0,98,87,58,0.00,40.00,13,7,22,0.00
2013-5-19,67.0,60.4,54.0,61.0,58.0,52.0,99,92,70,0.00,40.00,11,6,18,0.00
2013-5-20,68.0,58.9,51.0,61.0,55.2,46.0,99,88,60,0.00,40.00,12,8,18,0.00
2013-5-21,70.0,61.3,52.0,62.0,54.7,45.0,98,80,58,0.00,40.00,15,10,26,0.00
2013-5-22,69.0,61.6,52.0,61.0,56.7,50.0,97,85,66,0.00,40.00,13,7,20,0.00
2013-5-23,74.0,63.9,53.0,60.0,54.5,50.0,95,74,49,0.00,40.00,16,9,27,0.00
2013-5-24,76.0,63.6,52.0,61.0,54.2,46.0,89,73,51,0.00,40.00,22,10,33,0.00
2013-5-25,71.0,61.5,55.0,63.0,57.5,50.0,100,87,67,0.00,40.00,15,8,26,0.00
2013-5-26,73.0,63.0,56.0,62.0,56.8,43.0,100,81,54,0.00,40.00,22,10,32,0.00
2013-5-27,69.0,62.5,56.0,61.0,54.6,50.0,92,76,60,0.00,40.00,15,10,25,0.00
2013-5-28,71.0,60.8,51.0,64.0,56.9,48.0,100,88,63,0.00,40.00,14,6,23,0.00
2013-5-29,70.0,61.3,53.0,65.0,58.8,53.0,100,92,62,0.00,40.00,11,7,19,0.00
2013-5-30,70.0,62.9,53.0,63.0,57.6,48.0,100,84,47,0.00,40.00,14,9,26,0.00
2013-5-31,72.0,62.8,52.0,65.0,58.8,51.0,100,88,67,0.00,40.00,12,6,19,0.00
2013-6-1,74.0,63.7,52.0,63.0,59.2,52.0,100,87,67,0.00,40.00,15,8,22,0.00
2013-6-2,73.0,64.9,56.0,65.0,57.8,38.0,100,80,34,0.00,40.00,15,9,36,0.00
2013-6-3,71.0,62.8,54.0,61.0,57.0,47.0,100,82,60,0.00,40.00,14,7,32,0.00
2013-6-4,73.0,61.1,52.0,62.0,57.3,40.0,100,89,63,0.00,40.00,17,8,32,0.00
2013-6-5,71.0,61.8,51.0,60.0,53.0,40.0,100,74,45,0.00,40.00,17,9,29,0.00
2013-6-6,71.0,62.0,51.0,60.0,53.8,43.0,100,76,53,0.00,40.00,20,9,33,0.00
2013-6-7,72.0,62.6,55.0,60.0,53.4,46.0,91,73,44,0.00,40.00,18,10,25,0.00
2013-6-8,72.0,62.1,53.0,59.0,54.6,50.0,97,78,58,0.00,40.00,16,8,34,0.00
2013-6-9,72.0,62.4,52.0,60.0,55.5,49.0,100,80,56,0.00,40.00,14,8,23,0.00
2013-6-10,74.0,63.8,51.0,62.0,57.8,51.0,100,83,56,0.00,40.00,14,7,24,0.00
2013-6-11,72.0,62.3,50.0,63.0,56.4,38.0,100,83,45,0.00,40.00,12,6,27,0.00
2013-6-12,77.0,62.9,48.0,62.0,54.3,45.0,100,75,53,0.00,40.00,19,9,33,0.00
2013-6-13,74.0,65.9,58.0,60.0,52.8,46.0,95,63,45,0.00,40.00,23,12,38,0.00
2013-6-14,74.0,64.0,55.0,59.0,51.9,37.0,85,66,46,0.00,40.00,23,10,40,0.00
2013-6-15,73.0,63.2,52.0,58.0,52.9,43.0,97,71,50,0.00,40.00,16,9,29,0.00
2013-6-16,72.0,62.9,51.0,60.0,53.8,38.0,99,74,46,0.00,40.00,17,9,31,0.00
2013-6-17,71.0,61.6,53.0,59.0,56.4,53.0,100,84,61,0.00,40.00,13,6,25,0.00
2013-6-18,70.0,62.4,55.0,63.0,57.0,49.0,100,84,63,0.00,40.00,13,8,25,0.00
2013-6-19,74.0,64.0,55.0,59.0,55.5,51.0,100,76,54,0.00,40.00,14,8,26,0.00